{"data":{"norad_id":62196,"epoch":"2026-09-21T13:59:17.110752Z","epoch_age_seconds":83985,"freshness":"FRESH","line1":"1 62196U 24229E   26264.58283693  .00016358  00000+0  60215-3 0  9996","line2":"2 62196  43.0036 211.7419 0001412 257.5653 102.5040 15.27606772100891","mean_motion":15.27606772,"eccentricity":0.0001412,"inclination_deg":43.0036,"raan_deg":211.7419,"arg_perigee_deg":257.5653,"mean_anomaly_deg":102.504,"bstar":0.00060215,"rev_number":10089,"period_min":94.26509664622,"perigee_km":482.00014405362,"apogee_km":483.93772036888,"semimajor_km":6861.1059322113,"source":"CELESTRAK","updated_at":"2026-09-22T09:00:49.539678Z"}}